Voltar ao catálogo

THOR ABLESTAR DEB

AtivoLEO
NORAD 132·DEBRIS·🇺🇸 United States

Lançado Jun 29, 1961 de Cape Canaveral Space Force Station

Loading…

Próximas Passagens (próximas 24 horas)

TLE

AtualizadoSource: Space-Track

Época: Sep 13, 2026, 23:58 UTC

1 00132U 61015S   26256.99888352 -.00000009  00000-0  51068-4 0  9996
2 00132  66.6586 112.3442 0069303 133.9003 226.7828 13.94783991316056

Acompanhe THOR ABLESTAR DEB em tempo real com AllMySat

Download on the App Store